Left ArrowRight Arrow

39.71368, -82.59933

Hourly Observations for March 2, 2015

Temp ( °F °C ) Dew Point ( °F °C ) Humidity (%) Winds ( mph kmh ) Pressure ( in mb ) Visibility ( mi km ) Precip ( " mm )
12:03 am 00:03 Cloudy 33 0.6 29 -1.7 85 85 WNW 9 15 30.33 1027 8 13 0.00 0.00
12:13 am 00:13 Cloudy 32 0 28 -2.2 85 85 NW 10 17 30.33 1027 8 13 0.00 0.00
12:22 am 00:22 Cloudy 32 0 28 -2.2 85 85 NW 9 15 30.33 1027 7 11 0.00 0.00
12:53 am 00:53 Cloudy 31 -0.6 27 -2.8 85 85 WNW 12 19 30.30 1026 7 11 0.00 0.00
1:53 am 01:53 Cloudy with Haze 29 -1.7 24 -4.4 82 82 WNW 13 20 30.31 1026 5 8 0.00 0.00
2:53 am 02:53 Mostly Cloudy with Haze 27 -2.8 21 -6.1 78 78 W 10 17 30.33 1027 6 10 0.00 0.00
3:04 am 03:04 Cloudy with Haze 26 -3.3 21 -6.1 81 81 WNW 9 15 30.36 1028 6 10 0.00 0.00
3:40 am 03:40 Cloudy 26 -3.3 20 -6.7 78 78 W 12 19 30.36 1028 7 11 0.00 0.00
3:53 am 03:53 Cloudy 26 -3.3 20 -6.7 78 78 WNW 14 22 30.35 1028 8 13 0.00 0.00
4:53 am 04:53 Cloudy 24 -4.4 18 -7.8 77 77 WNW 16 26 30.39 1029 8 13 0.00 0.00
5:53 am 05:53 Cloudy 23 -5 16 -8.9 74 74 NW 10 17 30.44 1031 7 11 0.00 0.00
6:53 am 06:53 Cloudy 22 -5.6 15 -9.4 75 75 NW 9 15 30.46 1032 7 11 0.00 0.00
7:21 am 07:21 Hazy 21 -6.1 15 -9.4 78 78 NW 8 13 30.53 1034 6 10 0.00 0.00
7:53 am 07:53 Hazy 22 -5.6 16 -8.9 78 78 WSW 3 6 30.48 1032 5 8 0.00 0.00
8:53 am 08:53 Hazy 21 -6.1 16 -8.9 81 81 WSW 7 11 30.51 1033 5 8 0.00 0.00
9:53 am 09:53 Hazy 22 -5.6 15 -9.4 75 75 W 8 13 30.53 1034 6 10 0.00 0.00
10:53 am 10:53 Hazy 23 -5 16 -8.9 74 74 W 5 7 30.54 1034 6 10 0.00 0.00
11:53 am 11:53 Mostly Sunny 26 -3.3 17 -8.3 69 69 VRB 3 6 30.54 1034 7 11 0.00 0.00
12:42 pm 12:42 Mostly Cloudy 26 -3.3 16 -8.9 66 66 SSW 5 7 30.56 1035 7 11 0.00 0.00
12:53 pm 12:53 Partly Cloudy 26 -3.3 16 -8.9 66 66 Calm 30.53 1034 7 11 0.00 0.00
1:01 pm 13:01 Mostly Cloudy 26 -3.3 17 -8.3 69 69 WSW 6 9 30.56 1035 7 11 0.00 0.00
1:45 pm 13:45 Partly Cloudy 27 -2.8 17 -8.3 66 66 WSW 7 11 30.53 1034 7 11 0.00 0.00
1:53 pm 13:53 Mostly Sunny 27 -2.8 16 -8.9 63 63 WSW 8 13 30.51 1033 7 11 0.00 0.00
2:53 pm 14:53 Sunny 28 -2.2 16 -8.9 60 60 W 3 6 30.50 1033 7 11 0.00 0.00
3:53 pm 15:53 Sunny 31 -0.6 16 -8.9 54 54 NE 5 7 30.48 1032 8 13 0.00 0.00
4:53 pm 16:53 Sunny 30 -1.1 17 -8.3 58 58 NNE 3 6 30.47 1032 8 13 0.00 0.00
5:53 pm 17:53 Sunny 28 -2.2 15 -9.4 58 58 NE 3 6 30.47 1032 8 13 0.00 0.00
6:53 pm 18:53 Clear 24 -4.4 16 -8.9 71 71 WSW 3 6 30.47 1032 8 13 0.00 0.00
7:53 pm 19:53 Clear 20 -6.7 14 -10 78 78 Calm 30.48 1032 7 11 0.00 0.00
8:53 pm 20:53 Hazy 18 -7.8 12 -11.1 77 77 Calm 30.47 1032 6 10 0.00 0.00
9:53 pm 21:53 Clear with Mist and Fog 16 -8.9 12 -11.1 84 84 Calm 30.45 1031 5 8 0.00 0.00
10:53 pm 22:53 Mostly Clear with Mist and Fog 14 -10 11 -11.7 88 88 Calm 30.42 1030 5 8 0.00 0.00
11:53 pm 23:53 Hazy 16 -8.9 11 -11.7 80 80 Calm 30.40 1030 5 8 0.00 0.00

Powered by Vaisala Xweather